FW7205 Weather Reports


time (UTC)temp
C
wind
direction
speed
KPH
gust
KPH
rain 1hr
cm
rain 24hr
cm
rain mn
cm
humidity
%
barometer
mb
20260505171553 26 61 0.0 8.0 0.00 0.00 0.00 80 1007.8
20260505170055 26 138 1.6 6.4 0.00 0.00 0.00 81 1007.7
20260505164600 25 135 1.6 8.0 0.00 0.00 0.00 84 1007.9
20260505163056 24 0 0.0 6.4 0.00 0.00 0.00 87 1008.1
20260505161551 23 219 1.6 6.4 0.00 0.00 0.00 88 1008.1
20260505153109 23 0 0.0 6.4 0.00 0.00 0.00 90 1008.1
20260505151557 22 75 0.0 3.2 0.00 0.00 0.00 91 1008.0
20260505140105 21 200 0.0 6.4 0.00 0.00 0.00 92 1007.8
20260505130110 21 249 0.0 4.8 0.00 0.00 0.00 91 1007.4
20260505124608 21 0 0.0 3.2 0.00 0.00 0.00 91 1007.2
20260505123117 21 0 0.0 4.8 0.00 0.00 0.00 91 1007.5
20260505121556 21 184 0.0 9.7 0.00 0.00 0.00 91 1007.1
20260505120055 21 218 0.0 6.4 0.00 0.00 0.00 91 1006.7
20260505114558 21 201 0.0 6.4 0.00 0.00 0.00 91 1007.0
20260505113059 21 0 1.6 6.4 0.00 0.00 0.00 91 1006.8
20260505111558 20 0 0.0 6.4 0.00 0.00 0.00 91 1006.7
20260505110105 20 0 0.0 3.2 0.00 0.00 0.00 91 1007.1
20260505101603 20 196 0.0 4.8 0.00 0.00 0.00 90 1006.9
20260505100057 20 0 0.0 3.2 0.00 0.00 0.00 90 1007.0
20260505094601 20 241 0.0 3.2 0.00 0.00 0.00 90 1007.1
20260505093055 20 0 0.0 4.8 0.00 0.00 0.00 90 1007.1
20260505091559 20 0 0.0 9.7 0.00 0.00 0.00 89 1007.1
20260505090059 20 0 0.0 3.2 0.00 0.00 0.00 89 1007.2
20260505084553 20 0 0.0 4.8 0.00 0.00 0.00 89 1007.5
20260505083057 20 0 0.0 4.8 0.00 0.00 0.00 88 1007.7
20260505081603 20 0 0.0 3.2 0.00 0.00 0.00 88 1007.9
20260505080058 20 0 0.0 6.4 0.00 0.00 0.00 87 1007.9
20260505074610 20 0 0.0 3.2 0.00 0.00 0.00 87 1007.9
20260505073102 20 195 0.0 3.2 0.00 0.00 0.00 87 1008.2
20260505071557 20 202 0.0 3.2 0.00 0.00 0.00 86 1008.2
20260505070118 20 0 0.0 4.8 0.00 0.00 0.00 86 1008.5
20260505064559 20 200 0.0 4.8 0.00 0.00 0.00 85 1008.9
20260505063103 20 0 0.0 4.8 0.00 0.00 0.00 85 1008.8
20260505061619 20 0 0.0 4.8 0.00 0.00 0.00 84 1009.1
20260505060103 20 0 0.0 4.8 0.00 0.00 0.00 84 1008.6
20260505054625 21 192 0.0 4.8 0.00 0.00 0.00 83 1008.9
20260505053106 21 229 1.6 8.0 0.00 0.00 0.00 83 1008.9
20260505051558 21 122 1.6 8.0 0.00 0.00 0.00 82 1008.8
20260505041554 22 116 1.6 6.4 0.00 0.00 0.00 80 1009.2
20260505040059 22 208 1.6 9.7 0.00 0.00 0.00 79 1009.0
20260505034558 22 117 1.6 6.4 0.00 0.00 0.00 78 1009.0
20260505033056 22 252 1.6 8.0 0.00 0.00 0.00 77 1009.0
20260505031558 22 218 1.6 8.0 0.00 0.00 0.00 77 1009.0
20260505030105 22 0 1.6 8.0 0.00 0.00 0.00 77 1009.1
20260505024608 23 97 0.0 8.0 0.00 0.00 0.00 76 1008.9
20260505023055 23 119 0.0 6.4 0.00 0.00 0.00 76 1008.7
20260505021609 23 0 0.0 3.2 0.00 0.00 0.00 75 1008.7
20260505014603 23 0 0.0 4.8 0.00 0.00 0.00 73 1008.6
20260505013058 24 221 0.0 4.8 0.00 0.00 0.00 72 1008.5
20260505011557 24 0 0.0 4.8 0.00 0.00 0.00 72 1008.5
20260505010056 24 136 1.6 8.0 0.00 0.00 0.00 71 1008.4
20260505004552 25 0 3.2 8.0 0.00 0.00 0.00 70 1008.3
20260505003055 25 92 0.0 4.8 0.00 0.00 0.00 70 1008.5
20260505001552 25 0 1.6 6.4 0.00 0.00 0.00 69 1008.5
20260505000057 25 113 0.0 4.8 0.00 0.00 0.00 68 1008.5
20260504234555 25 199 1.6 9.7 0.00 0.00 0.00 68 1008.7
20260504233100 26 123 1.6 6.4 0.00 0.00 0.00 67 1008.7
20260504231557 26 142 1.6 8.0 0.00 0.00 0.00 66 1008.7
20260504230053 26 0 1.6 4.8 0.00 0.00 0.00 65 1008.9
20260504224552 26 290 0.0 6.4 0.00 0.00 0.00 64 1009.1
20260504223057 26 138 1.6 9.7 0.00 0.00 0.00 64 1009.4
20260504221604 26 176 1.6 6.4 0.00 0.00 0.00 63 1009.1
20260504220118 26 121 1.6 9.7 0.00 0.00 0.00 64 1009.4
20260504214555 26 0 1.6 8.0 0.00 0.00 0.00 63 1009.9
20260504213117 26 124 1.6 8.0 0.00 0.00 0.00 63 1009.8
20260504211556 27 123 1.6 6.4 0.00 0.00 0.00 61 1010.3
20260504210101 26 0 1.6 4.8 0.00 0.00 0.00 62 1010.5
20260504204604 26 105 1.6 9.7 0.00 0.00 0.00 61 1010.9
20260504203057 26 0 1.6 8.0 0.00 0.00 0.00 60 1011.0
20260504201603 27 277 1.6 4.8 0.00 0.00 0.00 59 1011.3
20260504200108 26 213 1.6 6.4 0.00 0.00 0.00 62 1011.5
20260504194555 26 140 1.6 9.7 0.00 0.00 0.00 62 1011.8
20260504193052 26 121 1.6 6.4 0.00 0.00 0.00 62 1012.2
20260504191551 26 0 1.6 11.3 0.00 0.00 0.00 60 1012.0
20260504190053 26 158 1.6 8.0 0.00 0.00 0.00 60 1012.1
20260504184559 26 89 1.6 8.0 0.00 0.00 0.00 60 1012.6
20260504183059 26 0 3.2 11.3 0.00 0.00 0.00 60 1012.6
20260504181554 25 230 1.6 8.0 0.00 0.00 0.00 61 1012.9
20260504180052 25 89 1.6 8.0 0.00 0.00 0.00 60 1013.0
20260504174556 25 0 1.6 9.7 0.00 0.00 0.00 61 1013.3
20260504173059 25 184 1.6 6.4 0.00 0.00 0.00 61 1013.3